Location: ???? ?????
(30.0052°N, 31.2891°E)
Time: 19:18:01
(UTC+00:00)

Cosmos 1331 Rocket - Pass Details

Date: 01 October 2022
Orbit: 748 x 778 km, 74.0° (Epoch: 06 December)

Event Time Altitude Azimuth Distance (km) Brightness Sun altitude
Exits shadow 01:24:06 - 160° (SSE) 3,146 7.2 -31.7°
Reaches altitude 10° 01:26:54 10° 144° (SE) 2,258 6.6 -31.1°
Maximum altitude 01:30:35 20° 98° (E) 1,670 6.3 -30.3°
Drops below altitude 10° 01:34:16 10° 51° (NE) 2,266 7.2 -29.5°
Sets 01:37:10 0° 35° (NE) 3,195 7.9 -28.9°
